When you browse on this site, cookies collect data to enhance your experience and personalize the content and advertising you see.
Visit our Privacy Policy to learn more. By continuing to use the site, you agree to this use of cookies and data.
  • en France
  • Liste des pays
  • À 7 jours
  • Température de l'eau
  • Carte satellitaire
  • Carte météo
  • Widgets météo
  • user-avatar
    Se connecter

    Météo par heure à Constantine

    Ce jour, 23 Janvier, Mercredi

    Heure Température Précipitation Vent Pression Humidité
    00:00 +2°C° 0 mm 3 m/s 702 mmHg 79%
    01:00 +2°C° 0 mm 3 m/s 701 mmHg 79%
    02:00 +1°C° 0 mm 3 m/s 701 mmHg 78%
    03:00 +2°C° 0 mm 2 m/s 700 mmHg 78%
    04:00 +2°C° 0 mm 2 m/s 700 mmHg 79%
    05:00 +2°C° 0 mm 2 m/s 700 mmHg 80%
    06:00 +1°C° 0 mm 3 m/s 699 mmHg 80%
    07:00 +2°C° 0 mm 3 m/s 699 mmHg 77%
    08:00 +4°C° 0 mm 4 m/s 699 mmHg 74%
    09:00 +5°C° 0 mm 5 m/s 699 mmHg 71%
    10:00 +6°C° 0 mm 5 m/s 699 mmHg 68%
    11:00 +7°C° 0 mm 5 m/s 699 mmHg 65%
    12:00 +8°C° 0 mm 6 m/s 699 mmHg 61%
    13:00 +8°C° 0.1 mm 6 m/s 698 mmHg 62%
    14:00 +7°C° 0.1 mm 6 m/s 697 mmHg 63%
    15:00 +7°C° 0.1 mm 5 m/s 697 mmHg 63%
    16:00 +7°C° 0.5 mm 6 m/s 696 mmHg 68%
    17:00 +5°C° 0.5 mm 7 m/s 695 mmHg 72%
    18:00 +5°C° 0.5 mm 7 m/s 694 mmHg 77%
    19:00 +5°C° 0.9 mm 7 m/s 694 mmHg 80%
    20:00 +5°C° 0.9 mm 7 m/s 694 mmHg 84%
    21:00 +5°C° 0.9 mm 7 m/s 694 mmHg 88%
    22:00 +4°C° 3 mm 7 m/s 694 mmHg 89%
    23:00 +4°C° 3 mm 6 m/s 693 mmHg 90%

    Demain, 24 Janvier, Jeudi

    Heure Température Précipitation Vent Pression Humidité
    00:00 +4°C° 3 mm 6 m/s 693 mmHg 91%
    01:00 +3°C° 3.2 mm 6 m/s 693 mmHg 92%
    02:00 +2°C° 3.2 mm 5 m/s 693 mmHg 93%
    03:00 0°C° 3.2 mm 5 m/s 692 mmHg 94%
    04:00 -1°C° 2 mm 6 m/s 693 mmHg 94%
    05:00 -1°C° 2 mm 6 m/s 693 mmHg 94%
    06:00 -1°C° 2 mm 7 m/s 693 mmHg 94%
    07:00 -1°C° 0.6 mm 8 m/s 693 mmHg 92%
    08:00 -1°C° 0.6 mm 8 m/s 693 mmHg 90%
    09:00 -1°C° 0.6 mm 8 m/s 694 mmHg 87%
    10:00 -2°C° 0.1 mm 10 m/s 694 mmHg 88%
    11:00 -2°C° 0.1 mm 11 m/s 694 mmHg 89%
    12:00 -1°C° 0.1 mm 12 m/s 695 mmHg 90%
    13:00 -1°C° 0.1 mm 12 m/s 695 mmHg 90%
    14:00 -1°C° 0.1 mm 12 m/s 695 mmHg 90%
    15:00 -1°C° 0.1 mm 12 m/s 695 mmHg 90%
    16:00 -1°C° 0.1 mm 11 m/s 696 mmHg 90%
    17:00 -1°C° 0.1 mm 11 m/s 696 mmHg 91%
    18:00 0°C° 0.1 mm 10 m/s 697 mmHg 92%
    19:00 0°C° 0.2 mm 10 m/s 697 mmHg 92%
    20:00 0°C° 0.2 mm 10 m/s 698 mmHg 93%
    21:00 0°C° 0.2 mm 9 m/s 699 mmHg 93%
    22:00 0°C° 0.1 mm 9 m/s 699 mmHg 93%
    23:00 0°C° 0.1 mm 8 m/s 700 mmHg 94%

    Après-demain, 25 Janvier, Vendredi

    Heure Température Précipitation Vent Pression Humidité
    00:00 0°C° 0.1 mm 7 m/s 700 mmHg 94%
    01:00 0°C° 0.4 mm 7 m/s 700 mmHg 94%
    02:00 0°C° 0.4 mm 7 m/s 701 mmHg 94%
    03:00 0°C° 0.4 mm 7 m/s 701 mmHg 94%
    04:00 0°C° 0.2 mm 8 m/s 701 mmHg 92%
    05:00 0°C° 0.2 mm 9 m/s 702 mmHg 90%
    06:00 0°C° 0.2 mm 9 m/s 702 mmHg 88%
    07:00 0°C° 0.1 mm 10 m/s 703 mmHg 85%
    08:00 0°C° 0.1 mm 10 m/s 703 mmHg 83%
    09:00 +1°C° 0.1 mm 10 m/s 704 mmHg 80%
    10:00 +1°C° 0.2 mm 10 m/s 704 mmHg 79%
    11:00 +2°C° 0.2 mm 10 m/s 704 mmHg 77%
    12:00 +2°C° 0.2 mm 10 m/s 704 mmHg 76%
    13:00 +2°C° 0.3 mm 9 m/s 703 mmHg 77%
    14:00 +2°C° 0.3 mm 9 m/s 703 mmHg 78%
    15:00 +2°C° 0.3 mm 8 m/s 703 mmHg 79%
    16:00 +3°C° 0.3 mm 7 m/s 703 mmHg 82%
    17:00 +2°C° 0.3 mm 6 m/s 703 mmHg 86%
    18:00 +3°C° 0.3 mm 4 m/s 703 mmHg 89%
    19:00 +3°C° 1 mm 4 m/s 703 mmHg 91%
    20:00 +3°C° 1 mm 4 m/s 703 mmHg 93%
    21:00 +3°C° 1 mm 3 m/s 703 mmHg 94%
    22:00 +3°C° 1.1 mm 4 m/s 703 mmHg 94%
    23:00 +2°C° 1.1 mm 5 m/s 703 mmHg 93%

    26 Janvier, Samedi

    Heure Température Précipitation Vent Pression Humidité
    00:00 +3°C° 1.1 mm 6 m/s 703 mmHg 92%
    01:00 +2°C° 0.2 mm 6 m/s 704 mmHg 91%
    02:00 +2°C° 0.2 mm 6 m/s 704 mmHg 90%
    03:00 +2°C° 0.2 mm 6 m/s 704 mmHg 89%
    04:00 +2°C° 0.1 mm 6 m/s 704 mmHg 90%
    05:00 +1°C° 0.1 mm 6 m/s 705 mmHg 91%
    06:00 +1°C° 0.1 mm 6 m/s 705 mmHg 92%
    07:00 +2°C° 0.5 mm 6 m/s 706 mmHg 91%
    08:00 +2°C° 0.5 mm 6 m/s 707 mmHg 90%
    09:00 +2°C° 0.5 mm 6 m/s 707 mmHg 90%
    10:00 +3°C° 0.2 mm 6 m/s 708 mmHg 86%
    11:00 +4°C° 0.2 mm 7 m/s 708 mmHg 83%
    12:00 +4°C° 0.2 mm 7 m/s 709 mmHg 80%
    13:00 +4°C° 0 mm 6 m/s 708 mmHg 79%
    14:00 +5°C° 0 mm 5 m/s 708 mmHg 77%
    15:00 +5°C° 0 mm 5 m/s 708 mmHg 76%
    16:00 +4°C° 0 mm 4 m/s 708 mmHg 80%
    17:00 +3°C° 0 mm 3 m/s 708 mmHg 85%
    18:00 +3°C° 0 mm 2 m/s 708 mmHg 89%
    19:00 +3°C° 0 mm 2 m/s 708 mmHg 89%
    20:00 +4°C° 0 mm 2 m/s 709 mmHg 89%
    21:00 +4°C° 0 mm 2 m/s 709 mmHg 88%
    22:00 +4°C° 0 mm 2 m/s 709 mmHg 89%
    23:00 +3°C° 0 mm 2 m/s 708 mmHg 89%

    27 Janvier, Dimanche

    Heure Température Précipitation Vent Pression Humidité
    00:00 +2°C° 0 mm 3 m/s 708 mmHg 89%
    01:00 +1°C° 0 mm 3 m/s 707 mmHg 88%
    02:00 +2°C° 0 mm 2 m/s 707 mmHg 87%
    03:00 +2°C° 0 mm 2 m/s 706 mmHg 86%
    04:00 +2°C° 0 mm 2 m/s 706 mmHg 84%
    05:00 +2°C° 0 mm 2 m/s 706 mmHg 83%
    06:00 +2°C° 0 mm 2 m/s 706 mmHg 81%
    07:00 +4°C° 0 mm 2 m/s 706 mmHg 77%
    08:00 +4°C° 0 mm 3 m/s 706 mmHg 73%
    09:00 +7°C° 0 mm 3 m/s 706 mmHg 68%
    10:00 +9°C° 0 mm 3 m/s 706 mmHg 64%
    11:00 +10°C° 0 mm 4 m/s 705 mmHg 60%
    12:00 +12°C° 0 mm 4 m/s 705 mmHg 55%
    13:00 +11°C° 0 mm 4 m/s 704 mmHg 58%
    14:00 +11°C° 0 mm 4 m/s 704 mmHg 61%
    15:00 +11°C° 0 mm 4 m/s 703 mmHg 63%
    16:00 +10°C° 0.2 mm 3 m/s 703 mmHg 71%
    17:00 +9°C° 0.2 mm 2 m/s 703 mmHg 79%
    18:00 +8°C° 0.2 mm 2 m/s 703 mmHg 87%
    19:00 +8°C° 0.2 mm 1 m/s 703 mmHg 89%
    20:00 +7°C° 0.2 mm 1 m/s 703 mmHg 91%
    21:00 +7°C° 0.2 mm 1 m/s 703 mmHg 94%
    22:00 +7°C° 0 mm 1 m/s 703 mmHg 93%
    23:00 +6°C° 0 mm 1 m/s 702 mmHg 92%

    28 Janvier, Lundi

    Heure Température Précipitation Vent Pression Humidité
    00:00 +5°C° 0 mm 2 m/s 702 mmHg 92%
    01:00 +5°C° 0.1 mm 2 m/s 702 mmHg 93%
    02:00 +4°C° 0.1 mm 2 m/s 701 mmHg 94%
    03:00 +4°C° 0.1 mm 2 m/s 701 mmHg 94%
    04:00 +3°C° 0.6 mm 3 m/s 701 mmHg 94%
    05:00 +2°C° 0.6 mm 3 m/s 701 mmHg 93%
    06:00 +1°C° 0.6 mm 4 m/s 701 mmHg 93%
    07:00 +2°C° 0.1 mm 3 m/s 702 mmHg 89%
    08:00 +3°C° 0.1 mm 2 m/s 702 mmHg 86%
    09:00 +3°C° 0.1 mm 2 m/s 702 mmHg 82%
    10:00 +4°C° 0.3 mm 2 m/s 702 mmHg 79%
    11:00 +3°C° 0.3 mm 3 m/s 702 mmHg 75%
    12:00 +4°C° 0.3 mm 3 m/s 702 mmHg 72%
    13:00 +3°C° 0.5 mm 4 m/s 702 mmHg 74%
    14:00 +2°C° 0.5 mm 5 m/s 702 mmHg 76%
    15:00 +2°C° 0.5 mm 6 m/s 702 mmHg 77%
    16:00 +1°C° 0 mm 5 m/s 702 mmHg 79%
    17:00 +1°C° 0 mm 3 m/s 702 mmHg 81%
    18:00 +1°C° 0 mm 2 m/s 702 mmHg 83%
    19:00 +1°C° 0 mm 2 m/s 703 mmHg 84%
    20:00 -1°C° 0 mm 2 m/s 703 mmHg 84%
    21:00 -1°C° 0 mm 2 m/s 703 mmHg 85%
    22:00 -1°C° 0 mm 2 m/s 703 mmHg 86%
    23:00 -1°C° 0 mm 2 m/s 703 mmHg 86%
    Voir plus